• In Belarus
  • List of Countries
  • For 7 days
  • Water Temperature
  • Satellite Maps
  • Weather Map
  • Weather Widgets
  • user-avatar
    Login

    Hourly Weather Pokrovka

    Today, 21 April, Sunday

    Time Temperature Precipitation Wind Pressure Humidity
    00:00 +7°C° 0 mm 2 mps 768 mmHg 46%
    01:00 +8°C° 0 mm 1 mps 768 mmHg 47%
    02:00 +8°C° 0 mm 1 mps 767 mmHg 48%
    03:00 +8°C° 0 mm 1 mps 767 mmHg 49%
    04:00 +6°C° 0 mm 2 mps 767 mmHg 50%
    05:00 +6°C° 0 mm 2 mps 767 mmHg 51%
    06:00 +7°C° 0 mm 2 mps 767 mmHg 48%
    07:00 +9°C° 0 mm 2 mps 767 mmHg 46%
    08:00 +10°C° 0 mm 2 mps 768 mmHg 43%
    09:00 +12°C° 0 mm 2 mps 768 mmHg 40%
    10:00 +13°C° 0 mm 1 mps 768 mmHg 37%
    11:00 +14°C° 0 mm 1 mps 768 mmHg 33%
    12:00 +14°C° 0 mm 2 mps 767 mmHg 33%
    13:00 +14°C° 0 mm 3 mps 767 mmHg 33%
    14:00 +14°C° 0 mm 3 mps 767 mmHg 33%
    15:00 +14°C° 0 mm 4 mps 767 mmHg 35%
    16:00 +13°C° 0 mm 4 mps 767 mmHg 38%
    17:00 +13°C° 0 mm 4 mps 767 mmHg 40%
    18:00 +12°C° 0 mm 4 mps 767 mmHg 44%
    19:00 +10°C° 0 mm 3 mps 767 mmHg 48%
    20:00 +9°C° 0 mm 3 mps 767 mmHg 52%
    21:00 +9°C° 0 mm 2 mps 767 mmHg 52%
    22:00 +8°C° 0 mm 2 mps 768 mmHg 52%
    23:00 +9°C° 0 mm 1 mps 768 mmHg 52%

    Tomorrow, 22 April, Monday

    Time Temperature Precipitation Wind Pressure Humidity
    00:00 +9°C° 0 mm 1 mps 768 mmHg 51%
    01:00 +9°C° 0 mm 1 mps 768 mmHg 51%
    02:00 +7°C° 0 mm 2 mps 768 mmHg 50%
    03:00 +7°C° 0 mm 2 mps 768 mmHg 52%
    04:00 +7°C° 0 mm 3 mps 768 mmHg 54%
    05:00 +6°C° 0 mm 4 mps 768 mmHg 56%
    06:00 +7°C° 0 mm 4 mps 768 mmHg 53%
    07:00 +9°C° 0 mm 5 mps 768 mmHg 51%
    08:00 +10°C° 0 mm 5 mps 768 mmHg 48%
    09:00 +13°C° 0 mm 5 mps 768 mmHg 44%
    10:00 +14°C° 0 mm 4 mps 768 mmHg 40%
    11:00 +15°C° 0 mm 4 mps 768 mmHg 36%
    12:00 +15°C° 0 mm 4 mps 768 mmHg 36%
    13:00 +16°C° 0 mm 3 mps 768 mmHg 36%
    14:00 +16°C° 0 mm 3 mps 768 mmHg 36%
    15:00 +14°C° 0 mm 3 mps 768 mmHg 39%
    16:00 +14°C° 0 mm 3 mps 768 mmHg 43%
    17:00 +14°C° 0 mm 2 mps 768 mmHg 47%
    18:00 +13°C° 0 mm 2 mps 768 mmHg 48%
    19:00 +12°C° 0 mm 1 mps 769 mmHg 49%
    20:00 +11°C° 0 mm 1 mps 769 mmHg 50%
    21:00 +11°C° 0 mm 1 mps 769 mmHg 52%
    22:00 +10°C° 0 mm 1 mps 769 mmHg 53%
    23:00 +10°C° 0 mm 1 mps 769 mmHg 54%

    Day after tomorrow, 23 April, Tuesday

    Time Temperature Precipitation Wind Pressure Humidity
    00:00 +10°C° 0 mm 1 mps 769 mmHg 55%
    01:00 +9°C° 0 mm 2 mps 770 mmHg 55%
    02:00 +8°C° 0 mm 3 mps 770 mmHg 56%
    03:00 +8°C° 0 mm 3 mps 770 mmHg 58%
    04:00 +7°C° 0 mm 4 mps 770 mmHg 59%
    05:00 +6°C° 0 mm 4 mps 770 mmHg 61%
    06:00 +8°C° 0 mm 4 mps 770 mmHg 58%
    07:00 +11°C° 0 mm 4 mps 771 mmHg 55%
    08:00 +12°C° 0 mm 4 mps 771 mmHg 53%
    09:00 +14°C° 0 mm 4 mps 771 mmHg 47%
    10:00 +15°C° 0 mm 5 mps 771 mmHg 42%
    11:00 +16°C° 0 mm 5 mps 771 mmHg 37%
    12:00 +17°C° 0 mm 5 mps 771 mmHg 37%
    13:00 +17°C° 0 mm 5 mps 771 mmHg 36%
    14:00 +17°C° 0 mm 5 mps 771 mmHg 36%
    15:00 +17°C° 0 mm 4 mps 771 mmHg 37%
    16:00 +17°C° 0 mm 4 mps 771 mmHg 38%
    17:00 +17°C° 0 mm 4 mps 771 mmHg 38%
    18:00 +14°C° 0 mm 5 mps 771 mmHg 41%
    19:00 +13°C° 0 mm 5 mps 771 mmHg 44%
    20:00 +10°C° 0 mm 6 mps 771 mmHg 47%
    21:00 +10°C° 0 mm 5 mps 771 mmHg 46%
    22:00 +9°C° 0 mm 5 mps 771 mmHg 45%
    23:00 +8°C° 0 mm 5 mps 771 mmHg 44%

    24 April, Wednesday

    Time Temperature Precipitation Wind Pressure Humidity
    00:00 +8°C° 0 mm 5 mps 771 mmHg 45%
    01:00 +8°C° 0 mm 5 mps 772 mmHg 47%
    02:00 +7°C° 0 mm 4 mps 772 mmHg 49%
    03:00 +7°C° 0 mm 5 mps 772 mmHg 50%
    04:00 +6°C° 0 mm 5 mps 772 mmHg 51%
    05:00 +6°C° 0 mm 5 mps 771 mmHg 52%
    06:00 +8°C° 0 mm 5 mps 772 mmHg 50%
    07:00 +9°C° 0 mm 5 mps 772 mmHg 48%
    08:00 +12°C° 0 mm 5 mps 772 mmHg 46%
    09:00 +14°C° 0 mm 5 mps 772 mmHg 44%
    10:00 +15°C° 0 mm 5 mps 772 mmHg 41%
    11:00 +17°C° 0 mm 5 mps 772 mmHg 39%
    12:00 +17°C° 0 mm 5 mps 772 mmHg 39%
    13:00 +18°C° 0 mm 4 mps 772 mmHg 38%
    14:00 +19°C° 0 mm 4 mps 772 mmHg 38%
    15:00 +18°C° 0 mm 4 mps 771 mmHg 40%
    16:00 +18°C° 0 mm 4 mps 771 mmHg 43%
    17:00 +17°C° 0 mm 3 mps 771 mmHg 46%
    18:00 +14°C° 0 mm 3 mps 771 mmHg 52%
    19:00 +14°C° 0 mm 2 mps 771 mmHg 59%
    20:00 +12°C° 0 mm 1 mps 772 mmHg 65%
    21:00 +12°C° 0 mm 2 mps 772 mmHg 64%
    22:00 +10°C° 0 mm 2 mps 772 mmHg 64%
    23:00 +10°C° 0 mm 2 mps 772 mmHg 63%

    25 April, Thursday

    Time Temperature Precipitation Wind Pressure Humidity
    00:00 +10°C° 0 mm 2 mps 772 mmHg 62%
    01:00 +9°C° 0 mm 2 mps 772 mmHg 60%
    02:00 +9°C° 0 mm 2 mps 772 mmHg 59%
    03:00 +9°C° 0 mm 3 mps 772 mmHg 58%
    04:00 +9°C° 0 mm 3 mps 772 mmHg 58%
    05:00 +8°C° 0 mm 4 mps 772 mmHg 57%
    06:00 +10°C° 0 mm 4 mps 772 mmHg 54%
    07:00 +12°C° 0 mm 4 mps 772 mmHg 51%
    08:00 +14°C° 0 mm 4 mps 772 mmHg 48%
    09:00 +16°C° 0 mm 3 mps 772 mmHg 45%
    10:00 +17°C° 0 mm 3 mps 772 mmHg 43%
    11:00 +19°C° 0 mm 2 mps 772 mmHg 41%
    12:00 +19°C° 0 mm 3 mps 771 mmHg 41%
    13:00 +19°C° 0 mm 3 mps 771 mmHg 40%
    14:00 +20°C° 0 mm 4 mps 771 mmHg 40%
    15:00 +19°C° 0 mm 4 mps 771 mmHg 43%
    16:00 +18°C° 0 mm 3 mps 770 mmHg 46%
    17:00 +17°C° 0 mm 3 mps 770 mmHg 49%
    18:00 +16°C° 0 mm 3 mps 770 mmHg 52%
    19:00 +14°C° 0 mm 2 mps 770 mmHg 54%
    20:00 +13°C° 0 mm 2 mps 770 mmHg 57%
    21:00 +13°C° 0 mm 1 mps 770 mmHg 58%
    22:00 +12°C° 0 mm 1 mps 770 mmHg 59%
    23:00 +12°C° 0 mm 1 mps 770 mmHg 60%

    26 April, Friday

    Time Temperature Precipitation Wind Pressure Humidity
    00:00 +11°C° 0 mm 0 mps 769 mmHg 60%
    01:00 +10°C° 0 mm 0 mps 769 mmHg 61%
    02:00 +10°C° 0 mm 0 mps 769 mmHg 62%
    03:00 +10°C° 0 mm 0 mps 769 mmHg 62%
    04:00 +11°C° 0 mm 1 mps 769 mmHg 63%
    05:00 +11°C° 0 mm 1 mps 769 mmHg 63%
    06:00 +12°C° 0 mm 2 mps 768 mmHg 60%
    07:00 +14°C° 0 mm 2 mps 768 mmHg 57%
    08:00 +16°C° 0 mm 2 mps 768 mmHg 54%
    09:00 +17°C° 0 mm 2 mps 768 mmHg 52%
    10:00 +18°C° 0 mm 3 mps 768 mmHg 50%
    11:00 +20°C° 0 mm 3 mps 767 mmHg 48%
    12:00 +20°C° 0 mm 3 mps 767 mmHg 47%
    13:00 +20°C° 0 mm 3 mps 767 mmHg 47%
    14:00 +20°C° 0 mm 3 mps 766 mmHg 47%
    15:00 +20°C° 0 mm 3 mps 766 mmHg 50%
    16:00 +19°C° 0 mm 3 mps 765 mmHg 52%
    17:00 +18°C° 0 mm 3 mps 765 mmHg 55%
    18:00 +17°C° 0 mm 2 mps 765 mmHg 59%
    19:00 +15°C° 0 mm 2 mps 765 mmHg 63%
    20:00 +14°C° 0 mm 2 mps 765 mmHg 67%
    21:00 +14°C° 0 mm 1 mps 765 mmHg 68%
    22:00 +13°C° 0 mm 1 mps 765 mmHg 68%
    23:00 +13°C° 0 mm 1 mps 764 mmHg 69%
    Show more